Snowfall_Accumulation
0.1 1.6 5.5 1.9 0.8 1.5 2.2 2.3 1.7 0.9 0.2 0.5 0.8 0.5 0.0 0.0 0.0 0.0 0.0 0.0 0.0 0.0 0.0 0.0 0.0 0.0 0.0 0.0 0.0 0.0 0.0 0.0 0.0 0.0 0.0 0.0 0.0 0.0 0.0 0.0 0.0 0.0 0.0 0.0
2.4 4.1 0.9 0.3 0.5 1.7 2.6 3.2 2.1 1.0 0.1 0.9 1.4 0.8 0.1 0.0 0.0 0.0 0.0 0.0 0.0 0.0 0.0 0.0 0.0 0.0 0.0 0.0 0.0 0.0 0.0 0.0 0.0 0.0 0.0 0.0 0.0 0.0 0.0 0.0 0.0 0.0 0.0 0.0
5.2 2.2 0.2 0.8 1.5 2.7 2.7 3.0 1.8 2.1 1.2 0.3 1.3 2.2 0.6 0.2 0.0 0.0 0.0 0.0 0.0 0.0 0.0 0.0 0.0 0.0 0.0 0.0 0.0 0.0 0.0 0.0 0.0 0.0 0.0 0.0 0.0 0.0 0.0 0.0 0.0 0.0 0.0 0.0
1.9 0.5 0.5 1.6 2.1 2.3 3.8 0.7 0.6 1.7 2.7 3.9 2.9 6.0 1.5 0.6 0.6 0.0 0.1 0.3 0.0 0.0 0.0 0.0 0.0 0.0 0.0 0.0 0.0 0.0 0.0 0.0 0.0 0.0 0.0 0.0 0.0 0.0 0.0 0.0 0.0 0.0 0.0 0.0
3.3 0.6 0.7 2.9 1.7 1.2 1.4 0.1 0.5 1.3 3.8 5.0 2.3 5.1 3.2 0.7 1.3 0.9 0.3 0.6 0.5 0.0 0.0 0.0 0.0 0.0 0.0 0.0 0.0 0.0 0.0 0.0 0.0 0.0 0.0 0.0 0.0 0.0 0.0 0.0 0.0 0.0 0.0 0.0
1.5 0.4 0.5 0.7 0.1 0.3 0.4 0.4 0.9 2.2 6.0 10.8 4.0 4.7 3.9 3.0 2.5 1.2 0.3 0.5 0.4 0.1 0.0 0.0 0.0 0.0 0.0 0.0 0.0 0.0 0.0 0.0 0.0 0.0 0.0 0.0 0.0 0.0 0.0 0.0 0.0 0.0 0.0 0.0
7.4 2.8 0.6 0.2 2.1 1.7 1.9 11.4 18.7 18.5 16.1 8.9 1.7 3.0 3.8 1.8 0.3 0.3 0.3 0.5 0.3 0.2 0.2 0.1 0.0 0.2 0.1 0.1 0.2 0.2 0.2 0.3 0.1 0.0 0.0 0.0 0.0 0.0 0.0 0.0 0.0 0.0 0.0 0.0
10.5 11.3 1.5 0.3 1.1 3.3 3.2 7.5 13.9 12.6 8.3 4.0 2.0 3.5 3.5 0.2 0.2 0.0 0.1 0.4 0.3 0.5 0.5 0.4 0.2 0.4 0.1 0.1 0.0 0.1 0.1 0.3 0.3 0.2 0.1 0.0 0.0 0.0 0.0 0.0 0.0 0.0 0.0 0.0
7.9 8.2 0.7 0.2 0.3 1.2 5.9 7.2 4.0 9.5 7.2 5.0 3.3 2.5 1.9 0.1 0.2 0.4 0.2 0.3 0.4 0.4 0.4 0.5 0.7 0.6 0.3 0.3 0.0 0.0 0.1 0.2 0.2 0.2 0.0 0.0 0.0 0.0 0.0 0.0 0.0 0.0 0.0 0.0
4.2 8.1 2.9 0.3 0.6 0.5 1.1 1.6 6.5 11.8 9.9 7.1 3.7 2.8 3.9 2.6 1.6 0.9 0.4 0.4 0.3 0.2 0.3 0.4 0.5 0.7 0.6 0.2 0.4 0.1 0.0 0.1 0.0 0.2 0.2 0.2 0.2 0.0 0.0 0.0 0.0 0.0 0.0 0.0
2.6 7.2 7.2 1.9 4.2 4.4 2.7 4.0 7.1 9.0 7.8 8.1 5.4 3.8 2.6 2.2 1.3 1.2 0.4 0.4 0.6 0.6 0.4 0.4 0.5 0.5 0.4 0.4 0.1 0.1 0.0 0.0 0.1 0.0 0.1 0.2 0.2 0.1 0.0 0.0 0.0 0.0 0.0 0.0
1.6 4.3 8.9 3.7 0.4 0.3 0.8 2.2 5.0 9.9 7.7 6.1 5.8 3.7 0.6 0.3 0.2 0.4 0.4 0.3 0.4 0.4 0.3 0.3 0.3 0.4 0.4 0.2 0.1 0.1 0.1 0.2 0.1 0.0 0.0 0.0 0.2 0.0 0.1 0.0 0.0 0.0 0.0 0.0
2.0 4.6 8.8 4.0 1.5 0.7 1.8 1.3 2.2 4.9 8.8 7.1 6.5 3.9 0.3 0.4 0.2 0.3 0.3 0.3 0.2 0.2 0.3 0.3 0.3 0.3 0.3 0.2 0.1 0.1 0.1 0.2 0.1 0.0 0.0 0.0 0.1 0.2 0.2 0.1 0.0 0.0 0.0 0.0
1.2 4.0 5.6 5.7 3.9 3.4 3.7 2.8 2.5 6.8 10.9 6.2 4.0 3.4 1.6 0.8 0.5 0.5 0.3 0.3 0.2 0.2 0.2 0.2 0.2 0.2 0.2 0.2 0.2 0.1 0.1 0.1 0.2 0.1 0.0 0.0 0.0 0.0 0.0 0.0 0.0 0.0 0.0 0.0
1.3 3.7 2.8 1.7 1.0 1.6 2.2 2.4 2.6 5.1 4.9 5.6 3.0 2.6 1.4 0.8 0.5 0.3 0.2 0.2 0.2 0.2 0.1 0.1 0.2 0.2 0.2 0.2 0.2 0.1 0.1 0.1 0.1 0.1 0.1 0.1 0.1 0.1 0.0 0.0 0.0 0.0 0.0 0.0
0.8 2.2 2.0 2.4 0.6 0.9 2.3 1.8 1.8 2.1 2.3 3.2 2.6 2.2 0.7 0.5 0.3 0.3 0.2 0.1 0.2 0.2 0.2 0.2 0.2 0.2 0.1 0.1 0.2 0.2 0.1 0.1 0.1 0.2 0.2 0.1 0.1 0.1 0.0 0.0 0.0 0.0 0.0 0.0
0.9 1.3 4.5 3.3 1.1 2.4 3.7 1.7 1.6 2.0 1.8 2.1 3.4 2.1 0.8 0.7 0.8 0.8 0.2 0.2 0.2 0.2 0.2 0.1 0.1 0.1 0.1 0.1 0.1 0.1 0.1 0.1 0.1 0.1 0.2 0.1 0.1 0.1 0.1 0.1 0.1 0.2 0.2 0.1
0.8 1.6 4.3 3.7 2.3 3.4 1.5 0.3 0.6 1.2 1.4 0.9 1.2 1.0 0.5 0.6 0.4 0.1 0.1 0.3 0.2 0.2 0.3 0.1 0.1 0.1 0.0 0.1 0.0 0.1 0.0 0.1 0.1 0.2 0.2 0.2 0.3 0.2 0.4 0.4 0.5 0.6 0.5 0.5
0.5 1.4 5.3 4.6 3.0 1.9 0.6 0.4 0.5 1.3 2.0 0.9 0.8 0.5 0.2 0.1 0.1 0.1 0.0 0.2 0.2 0.2 0.1 0.1 0.2 0.1 0.0 0.1 0.1 0.1 0.1 0.1 0.2 0.2 0.3 0.4 0.6 0.7 0.5 0.6 0.5 0.6 0.6 0.6
0.5 1.0 4.2 4.7 4.0 2.4 1.0 0.2 0.1 0.3 2.1 0.5 0.2 0.5 0.2 0.1 0.8 0.9 0.0 0.0 0.1 0.1 0.1 0.1 0.1 0.1 0.1 0.1 0.1 0.1 0.1 0.2 0.3 0.3 0.5 0.4 0.3 0.9 0.8 0.8 0.7 0.6 0.7 0.8
1.7 2.5 4.2 3.9 3.6 1.4 0.4 0.1 0.1 1.4 4.3 0.4 0.4 0.4 0.2 0.4 1.0 0.6 0.1 0.0 0.0 0.1 0.1 0.0 0.1 0.2 0.1 0.2 0.2 0.4 0.4 0.5 0.7 0.3 0.1 0.2 0.4 0.8 0.8 0.8 0.6 0.8 0.6 0.7
1.0 1.5 1.6 1.8 2.9 1.8 0.3 0.3 0.9 1.1 0.4 0.3 0.3 0.3 0.3 0.3 0.2 0.2 0.1 0.1 0.1 0.1 0.1 0.3 0.3 0.5 0.4 0.5 0.4 0.6 0.7 0.3 0.2 0.3 0.3 0.5 0.8 0.8 0.6 0.5 0.6 1.0 1.1 0.9
0.8 1.1 1.3 1.2 1.3 0.7 0.4 0.5 0.3 0.2 0.3 0.3 0.2 0.2 0.2 0.3 0.3 0.3 0.2 0.2 0.2 0.2 0.1 0.1 0.2 0.3 0.2 0.2 0.1 0.6 0.7 0.5 0.3 0.4 0.5 0.5 0.5 0.5 0.6 0.4 0.7 0.8 0.7 0.8
0.7 0.3 0.7 1.0 0.5 0.4 0.3 0.3 0.2 0.2 0.2 0.2 0.1 0.1 0.1 0.2 0.2 0.2 0.2 0.3 0.2 0.2 0.2 0.2 0.3 0.3 0.4 0.4 0.5 0.6 0.5 0.4 0.5 0.6 0.7 0.7 0.5 0.5 0.5 0.6 0.5 0.6 0.7 0.7
0.4 0.4 0.8 1.2 0.4 0.4 0.3 0.2 0.2 0.1 0.1 0.1 0.1 0.1 0.2 0.2 0.2 0.1 0.2 0.2 0.2 0.2 0.2 0.2 0.4 0.4 0.5 0.4 0.6 0.5 0.5 0.5 0.6 0.6 0.7 0.5 0.5 0.4 0.4 0.5 0.3 0.5 0.5 0.7
0.6 0.7 1.2 1.3 0.5 0.7 0.5 0.2 0.1 0.1 0.1 0.1 0.1 0.2 0.1 0.1 0.1 0.1 0.1 0.2 0.2 0.2 0.1 0.2 0.3 0.3 0.4 0.5 0.5 0.6 0.3 0.3 0.8 0.7 0.5 0.5 0.5 0.4 0.5 0.5 0.7 0.2 0.4 0.4